Waseca, MN

2:50 AM CDT on June 25, 2017 (GMT -0500)
Waseca Municipal

Weather History for KACQ - April, 2013

Change the Weather History Date:

Sunday, April 14, 2013

  Actual Average Record
Temperature  
Mean Temperature 36 °F -  
Max Temperature 41 °F 53 °F 91 °F (2003)
Min Temperature 32 °F 34 °F 17 °F (1928)
Degree Days  
Heating Degree Days 28    
Moisture  
Dew Point 31 °F    
Average Humidity 88    
Maximum Humidity 100    
Minimum Humidity 75    
Precipitation  
Precipitation 0.11 in - - ()
Sea Level Pressure  
Sea Level Pressure 29.65 in    
Wind  
Wind Speed 16 mph (East)    
Max Wind Speed 32 mph    
Max Gust Speed 37 mph    
Visibility 7 miles    
Events Rain , Snow    
Averages and records for this station are not official NWS values.
T = Trace of Precipitation, MM = Missing Value Source: NWS Daily Summary

Daily Weather History Graph

Daily Weather History Graph

Search for Another Location

Airport or City:

Trip Planner

Search our weather history database for the weather conditions in past years. The results will help you decide how hot, cold, wet, or windy it might be!

Date:

Astronomy

Apr. 14, 2013 Rise Set
Actual Time 6:32 AM CDT 7:57 PM CDT
Civil Twilight 6:02 AM CDT 8:27 PM CDT
Nautical Twilight 5:25 AM CDT 9:03 PM CDT
Astronomical Twilight 4:47 AM CDT 9:42 PM CDT
Moon 9:03 AM CDT (4/14) No Moon Set
Length of Visible Light 14h 25m
Length of Day
13h 25m
Waxing Crescent, 17% of the Moon is Illuminated
Apr 14
Waxing Crescent
Apr 18
First Quarter
Apr 25
Full
May 2
Last Quarter
May 9
New

Hourly Weather History & Observations

Time (CDT) Temp. Windchill Dew Point Humidity Pressure Visibility Wind Dir Wind Speed Gust Speed Precip Events Conditions
12:16 AM 32.0 °F 22.5 °F 24.8 °F 75% 29.92 in 10.0 mi East 12.7 mph 17.3 mph N/A   Overcast
12:36 AM 32.0 °F 22.1 °F 24.8 °F 75% 29.91 in 10.0 mi East 13.8 mph - N/A   Overcast
12:56 AM 32.0 °F 22.1 °F 24.8 °F 75% 29.89 in 10.0 mi East 13.8 mph - N/A   Overcast
1:16 AM 32.0 °F 22.1 °F 24.8 °F 75% 29.89 in 10.0 mi ENE 13.8 mph - N/A   Overcast
1:36 AM 32.0 °F 23.0 °F 24.8 °F 75% 29.89 in 10.0 mi East 11.5 mph 18.4 mph N/A   Overcast
1:56 AM 32.0 °F 22.1 °F 24.8 °F 75% 29.87 in 10.0 mi East 13.8 mph 19.6 mph N/A   Overcast
2:16 AM 32.0 °F 22.1 °F 24.8 °F 75% 29.86 in 10.0 mi East 13.8 mph - N/A   Overcast
2:36 AM 32.0 °F 22.1 °F 26.6 °F 80% 29.88 in 10.0 mi East 13.8 mph 18.4 mph N/A   Overcast
2:56 AM 32.0 °F 22.1 °F 26.6 °F 80% 29.86 in 10.0 mi East 13.8 mph - N/A   Overcast
3:16 AM 32.0 °F 20.5 °F 24.8 °F 75% 29.85 in 10.0 mi East 18.4 mph - N/A   Overcast
3:37 AM 32.0 °F 21.2 °F 24.8 °F 75% 29.85 in 10.0 mi East 16.1 mph - N/A   Overcast
3:56 AM 32.0 °F 21.2 °F 24.8 °F 75% 29.85 in 10.0 mi East 16.1 mph - N/A   Overcast
4:16 AM 32.0 °F 20.8 °F 26.6 °F 80% 29.84 in 10.0 mi East 17.3 mph - N/A   Overcast
4:37 AM 32.0 °F 20.8 °F 26.6 °F 80% 29.84 in 10.0 mi East 17.3 mph - N/A   Overcast
4:56 AM 32.0 °F 20.5 °F 26.6 °F 80% 29.84 in 10.0 mi East 18.4 mph 23.0 mph N/A Snow Light Snow
5:16 AM 32.0 °F 20.1 °F 26.6 °F 80% 29.82 in 5.0 mi East 19.6 mph 24.2 mph N/A Snow Light Snow
5:37 AM 32.0 °F 19.5 °F 28.4 °F 87% 29.80 in 7.0 mi East 21.9 mph - N/A   Overcast
5:56 AM 32.0 °F 19.5 °F 28.4 °F 87% 29.79 in 10.0 mi East 21.9 mph 29.9 mph N/A   Overcast
6:16 AM 32.0 °F 18.9 °F 28.4 °F 87% 29.78 in 10.0 mi East 24.2 mph 29.9 mph N/A   Overcast
6:37 AM 32.0 °F 19.5 °F 28.4 °F 87% 29.78 in 10.0 mi East 21.9 mph 29.9 mph N/A   Overcast
7:16 AM 32.0 °F 20.1 °F 28.4 °F 87% 29.75 in 2.5 mi East 19.6 mph 26.5 mph N/A   Overcast
7:37 AM 32.0 °F 21.6 °F 28.4 °F 87% 29.75 in 3.0 mi East 15.0 mph 23.0 mph N/A   Overcast
7:56 AM 32.0 °F 22.5 °F 28.4 °F 87% 29.75 in 4.0 mi East 12.7 mph 20.7 mph N/A   Overcast
8:16 AM 32.0 °F 22.1 °F 30.2 °F 93% 29.74 in 5.0 mi East 13.8 mph 18.4 mph 0.01 in   Overcast
8:37 AM 32.0 °F 22.5 °F 30.2 °F 93% 29.70 in 4.0 mi ENE 12.7 mph - 0.01 in   Overcast
8:56 AM 32.0 °F 21.6 °F 30.2 °F 93% 29.69 in 5.0 mi East 15.0 mph - 0.01 in   Overcast
9:16 AM 32.0 °F 23.6 °F 30.2 °F 93% 29.69 in 7.0 mi ENE 10.4 mph - 0.01 in   Overcast
9:37 AM 32.0 °F 22.1 °F 30.2 °F 93% 29.68 in 10.0 mi East 13.8 mph - 0.01 in   Overcast
9:56 AM 32.0 °F 22.5 °F 30.2 °F 93% 29.66 in 3.0 mi East 12.7 mph - 0.01 in   Overcast
10:17 AM 32.0 °F 23.0 °F 30.2 °F 93% 29.66 in 4.0 mi East 11.5 mph - N/A   Overcast
10:37 AM 32.0 °F 23.0 °F 30.2 °F 93% 29.64 in 2.0 mi East 11.5 mph - 0.01 in Snow Light Snow
10:56 AM 32.0 °F 22.5 °F 30.2 °F 93% 29.64 in 3.0 mi East 12.7 mph 17.3 mph 0.02 in Snow Light Snow
11:17 AM 32.0 °F 23.0 °F 30.2 °F 93% 29.64 in 2.5 mi East 11.5 mph - 0.01 in Snow Light Snow
11:37 AM 32.0 °F 23.0 °F 30.2 °F 93% 29.64 in 7.0 mi East 11.5 mph - 0.02 in Snow Light Snow
11:56 AM 32.0 °F 22.5 °F 32.0 °F 100% 29.63 in 7.0 mi East 12.7 mph - 0.03 in   Overcast
12:17 PM 33.8 °F 22.8 °F 32.0 °F 93% 29.61 in 5.0 mi East 18.4 mph 26.5 mph N/A Snow Light Snow
12:37 PM 33.8 °F 21.0 °F 32.0 °F 93% 29.60 in 7.0 mi East 25.3 mph 34.5 mph 0.01 in Snow Light Snow
12:56 PM 33.8 °F 20.1 °F 32.0 °F 93% 29.57 in 5.0 mi East 29.9 mph 33.4 mph 0.01 in Snow Light Snow
1:17 PM 33.8 °F 21.6 °F 32.0 °F 93% 29.56 in 10.0 mi East 23.0 mph 33.4 mph N/A   Overcast
1:37 PM 33.8 °F 21.0 °F 32.0 °F 93% 29.55 in 10.0 mi East 25.3 mph 34.5 mph N/A   Overcast
1:56 PM 33.8 °F 21.6 °F 32.0 °F 93% 29.55 in 10.0 mi East 23.0 mph 33.4 mph N/A   Overcast
2:17 PM 33.8 °F 21.0 °F 32.0 °F 93% 29.55 in 10.0 mi East 25.3 mph 28.8 mph N/A   Overcast
2:36 PM 33.8 °F 20.5 °F 32.0 °F 93% 29.52 in 10.0 mi East 27.6 mph 36.8 mph N/A   Overcast
3:17 PM 33.8 °F 21.3 °F 32.0 °F 93% 29.51 in 10.0 mi East 24.2 mph 31.1 mph N/A   Overcast
3:36 PM 33.8 °F 21.0 °F 32.0 °F 93% 29.51 in 3.0 mi East 25.3 mph 33.4 mph N/A Rain Rain
3:57 PM 33.8 °F 21.0 °F 32.0 °F 93% 29.49 in 1.8 mi East 25.3 mph 32.2 mph 0.02 in   Overcast
4:17 PM 35.6 °F 22.1 °F 33.8 °F 93% 29.48 in 1.5 mi East 32.2 mph 36.8 mph N/A Snow Light Snow
4:36 PM 35.6 °F 23.2 °F 33.8 °F 93% 29.46 in 1.2 mi East 26.5 mph 33.4 mph N/A Snow Light Snow
4:57 PM 35.6 °F 23.2 °F 33.8 °F 93% 29.45 in 3.0 mi East 26.5 mph - N/A Snow Light Snow
5:17 PM 35.6 °F 23.7 °F 33.8 °F 93% 29.45 in 4.0 mi East 24.2 mph 33.4 mph N/A   Overcast
5:36 PM 35.6 °F 22.3 °F 33.8 °F 93% 29.44 in 4.0 mi East 31.1 mph 36.8 mph N/A Rain Light Rain
5:57 PM 35.6 °F 26.6 °F 33.8 °F 93% 29.46 in 7.0 mi East 13.8 mph 17.3 mph N/A Rain Light Rain
6:16 PM 35.6 °F 23.2 °F 33.8 °F 93% 29.45 in 3.0 mi East 26.5 mph 31.1 mph N/A Snow Light Snow
6:37 PM 35.6 °F 23.4 °F 33.8 °F 93% 29.44 in 2.5 mi East 25.3 mph 32.2 mph 0.01 in Snow Light Snow
6:56 PM 35.6 °F 24.2 °F 33.8 °F 93% 29.44 in 7.0 mi East 21.9 mph 29.9 mph 0.01 in   Mostly Cloudy
7:16 PM 35.6 °F 24.2 °F 33.8 °F 93% 29.43 in 7.0 mi East 21.9 mph 31.1 mph N/A   Mostly Cloudy
7:37 PM 35.6 °F 24.2 °F 33.8 °F 93% 29.45 in 7.0 mi East 21.9 mph - N/A   Overcast
7:56 PM 35.6 °F 25.9 °F 35.6 °F 100% 29.46 in 5.0 mi East 16.1 mph - N/A   Overcast
8:16 PM 37.4 °F 29.8 °F 35.6 °F 93% 29.47 in 5.0 mi SE 11.5 mph - N/A   Overcast
8:37 PM 41.0 °F 33.9 °F 39.2 °F 93% 29.51 in 7.0 mi WSW 12.7 mph 16.1 mph N/A   Overcast
8:56 PM 37.4 °F 26.9 °F 35.6 °F 93% 29.53 in 10.0 mi WSW 20.7 mph 25.3 mph N/A   Mostly Cloudy
9:16 PM 37.4 °F 28.2 °F 35.6 °F 93% 29.54 in 10.0 mi WSW 16.1 mph 21.9 mph N/A   Mostly Cloudy
9:37 PM 37.4 °F 28.9 °F 33.8 °F 87% 29.55 in 10.0 mi WSW 13.8 mph 23.0 mph N/A   Mostly Cloudy
9:56 PM 37.4 °F 30.8 °F 33.8 °F 87% 29.55 in 10.0 mi WSW 9.2 mph - N/A   Scattered Clouds
10:17 PM 35.6 °F 29.2 °F 33.8 °F 93% 29.57 in 10.0 mi SW 8.1 mph - N/A   Mostly Cloudy
10:37 PM 35.6 °F 29.2 °F 32.0 °F 87% 29.56 in 10.0 mi SW 8.1 mph - N/A   Scattered Clouds
10:56 PM 35.6 °F 27.1 °F 32.0 °F 87% 29.57 in 10.0 mi SW 12.7 mph - N/A   Clear
11:16 PM 35.6 °F 26.6 °F 32.0 °F 87% 29.58 in 10.0 mi SW 13.8 mph - N/A   Clear
11:36 PM 35.6 °F 28.6 °F 30.2 °F 81% 29.58 in 10.0 mi SSW 9.2 mph - N/A   Clear
11:56 PM 35.6 °F 30.7 °F 32.0 °F 87% 29.58 in 10.0 mi SSW 5.8 mph - N/A   Clear